Overview Statistics Trail Chart Weather Telemetry Raw packets
 

This is the latest recevied weather packets stored in our database for station/object KB7STN. If no packets are shown the sender has not sent any weather packets the latest 10 day(s).

<< 39 40 41 42 43 44 45 >>
Time Temp. Humidity Pressure Rain* Wind** Luminosity Snow
1788428118 18.89° C 19% 1016 hPa 0 mm - - -
1788427818 18.89° C 19% 1016.1 hPa 0 mm - - -
1788427518 18.89° C 18% 1016.1 hPa 0 mm - - -
1788427218 18.33° C 19% 1016 hPa 0 mm - - -
1788426918 17.78° C 21% 1016 hPa 0 mm - - -
1788426618 17.22° C 21% 1016 hPa 0 mm - - -
1788426318 17.22° C 24% 1016.1 hPa 0 mm - - -
1788426018 17.22° C 30% 1016.1 hPa 0 mm - - -
1788425718 17.22° C 28% 1016.1 hPa 0 mm - - -
1788425418 17.22° C 31% 1016.1 hPa 0 mm - - -
1788425118 17.78° C 30% 1016 hPa 0 mm - - -
1788424818 18.33° C 28% 1016.1 hPa 0 mm - - -
1788424518 18.33° C 29% 1016.1 hPa 0 mm - - -
1788424218 18.89° C 28% 1016.1 hPa 0 mm - - -
1788423918 19.44° C 24% 1016.1 hPa 0 mm - - -
1788423618 19.44° C 18% 1016.1 hPa 0 mm - - -
1788423318 19.44° C 19% 1016.1 hPa 0 mm - - -
1788423018 19.44° C 18% 1016 hPa 0 mm - - -
1788422718 19.44° C 18% 1016.1 hPa 0 mm - - -
1788422418 19.44° C 19% 1016 hPa 0 mm - - -
1788422118 19.44° C 18% 1016 hPa 0 mm - - -
1788421818 19.44° C 19% 1015.9 hPa 0 mm - - -
1788421518 19.44° C 19% 1015.9 hPa 0 mm - - -
1788421218 19.44° C 19% 1016 hPa 0 mm - - -
1788420918 18.89° C 19% 1015.9 hPa 0 mm - - -

* Rain latest hour (hover to see other rain measurements)
** Current wind speed in m/s (hover to see current wind gust speed)